Weather History for Cortez, CO

Change the Weather History Date:

Tuesday, June 10, 2014

  Actual Average Record
Temperature  
Mean Temperature 65 °F 63 °F  
Max Temperature 89 °F 83 °F 97 °F (2013)
Min Temperature 40 °F 42 °F 33 °F (2008)
Degree Days  
Heating Degree Days 0 4  
Month to date heating degree days 17 46  
Since 1 June heating degree days 17 46  
Since 1 July heating degree days 6200 6413  
Cooling Degree Days 0 1  
Month to date cooling degree days 5 10  
Year to date cooling degree days 21 15  
Since 1 June cooling degree days 5 10  
Growing Degree Days 14 (Base 50)    
Moisture  
Dew Point 24 °F    
Average Humidity 35    
Maximum Humidity 62    
Minimum Humidity 7    
Precipitation  
Precipitation 0.00 in 0.01 in 0.02 in (2005)
Month to date precipitation T 0.19  
Year to date precipitation 2.99 5.33  
Sea Level Pressure  
Sea Level Pressure 29.85 in    
Wind  
Wind Speed 7 mph (East)    
Max Wind Speed 20 mph    
Max Gust Speed 29 mph    
Visibility 10 miles    
Events      
T = Trace of Precipitation, MM = Missing Value Source: NWS Daily Summary

Daily Weather History Graph

Daily Weather History Graph

Search for Another Location

Airport:

Trip Planner

Search our weather history database for the weather conditions in past years. The results will help you decide how hot, cold, wet, or windy it might be!

Date:

Astronomy

Jun. 10, 2014 Rise Set
Actual Time 5:53 AM MDT 8:34 PM MDT
Civil Twilight 5:22 AM MDT 9:05 PM MDT
Nautical Twilight 4:44 AM MDT 9:44 PM MDT
Astronomical Twilight 4:01 AM MDT 10:27 PM MDT
Moon 6:06 PM MDT (6/10) 3:57 AM MDT (6/10)
Length of Visible Light 15h 42m
Length of Day
14h 41m
Waxing Gibbous, 92% of the Moon is Illuminated
Jun 10
Waxing Gibbous
Jun 12
Full
Jun 19
Last Quarter
Jun 27
New
Jul 5
First Quarter

Hourly Weather History & Observations

Time (MDT) Temp. Windchill Dew Point Humidity Pressure Visibility Wind Dir Wind Speed Gust Speed Precip Events Conditions
12:53 AM 46.0 °F 43.1 °F 30.0 °F 54% 29.94 in 10.0 mi East 5.8 mph - N/A   Clear
1:53 AM 45.0 °F 41.2 °F 27.0 °F 49% 29.92 in 10.0 mi East 6.9 mph - N/A   Clear
2:53 AM 42.1 °F 39.2 °F 30.0 °F 62% 29.92 in 10.0 mi East 4.6 mph - N/A   Clear
3:53 AM 41.0 °F 38.0 °F 26.1 °F 55% 29.93 in 10.0 mi ENE 4.6 mph - N/A   Clear
4:53 AM 42.1 °F 38.4 °F 27.0 °F 55% 29.93 in 10.0 mi ENE 5.8 mph - N/A   Clear
5:53 AM 41.0 °F 36.4 °F 26.1 °F 55% 29.94 in 10.0 mi East 6.9 mph - N/A   Clear
6:53 AM 46.0 °F 44.8 °F 28.0 °F 50% 29.93 in 10.0 mi East 3.5 mph - N/A   Clear
9:53 AM 72.0 °F - 30.0 °F 21% 29.93 in 10.0 mi Calm Calm - N/A   Clear
10:53 AM 78.1 °F - 24.1 °F 14% 29.91 in 10.0 mi SW 10.4 mph - N/A   Clear
11:53 AM 84.0 °F - 19.9 °F 9% 29.88 in 10.0 mi South 10.4 mph - N/A   Clear
1:53 PM 87.1 °F - 21.0 °F 9% 29.86 in 10.0 mi WSW 10.4 mph 20.7 mph N/A   Clear
3:53 PM 88.0 °F - 16.0 °F 7% 29.81 in 10.0 mi WNW 11.5 mph - N/A   Clear
4:53 PM 87.1 °F - 19.0 °F 8% 29.79 in 10.0 mi WSW 9.2 mph 24.2 mph N/A   Clear
5:53 PM 88.0 °F - 19.0 °F 8% 29.77 in 10.0 mi South 6.9 mph - N/A   Clear
6:53 PM 87.1 °F - 16.0 °F 7% 29.74 in 10.0 mi WNW 10.4 mph - N/A   Clear
7:53 PM 84.0 °F - 18.0 °F 9% 29.72 in 10.0 mi WNW 3.5 mph - N/A   Clear
9:53 PM 61.0 °F - 30.9 °F 32% 29.75 in 10.0 mi ENE 9.2 mph - N/A   Clear
10:53 PM 59.0 °F - 26.1 °F 28% 29.75 in 10.0 mi ENE 9.2 mph - N/A   Clear
11:53 PM 54.0 °F - 30.9 °F 41% 29.74 in 10.0 mi NE 4.6 mph - N/A   Clear